Effective Sunday, March 17, 2024, the National Weather Service National Data Buoy Center will discontinue its Dial-A-Buoy Interactive Voice Response system. For more information, see Service Change Notice 24-06 (PDF).

Station CWBF1 - 8726724 - Clearwater Beach, FL Image indicating link to RSS feed of recent meteorological observations for station CWBF1


Conditions at CWBF1 as of
(5:00 pm EST)
2200 GMT on 02/21/2024:
     

Click on the graph icon in the table below to see a time series plot of the last five days of that observation.

5-day plot - Wind Direction Wind Direction (WDIR): NW ( 320 deg true )
5-day plot - Wind Speed Wind Speed (WSPD): 11.1 kts
5-day plot - Wind Gust Wind Gust (GST): 12.0 kts
5-day plot - Atmospheric Pressure Atmospheric Pressure (PRES):30.21 in
5-day plot - Pressure Tendency Pressure Tendency (PTDY):-0.02 in ( Falling )
5-day plot - Air Temperature Air Temperature (ATMP): 61.3 °F
5-day plot - Water Temperature Water Temperature (WTMP): 64.4 °F
5-day plot - Wind Speed at 10 Meters Wind Speed at 10 meters (WSPD10M): 11.7 kts
5-day plot - Wind Speed at 20 Meters Wind Speed at 20 meters (WSPD20M): 13.6 kts
5-day plot -  Wind Speed, Wind Gust and Atmospheric Pressure Combined plot of Wind Speed, Gust, and Air Pressure
NOS Water Level Observation Network Water Level
Previous observations
TIME
(EST)
5-day plot - Wind Direction
WDIR
 
5-day plot - Wind Speed
WSPD
kts
5-day plot - Wind Gust
GST
kts
5-day plot - Wave Height
WVHT
ft
5-day plot - Dominant Wave Period
DPD
sec
5-day plot - Average Wave Period
APD
sec
5-day plot - Mean Wave Direction
MWD
 
5-day plot - Atmospheric Pressure
PRES
in
5-day plot - Pressure Tendency
PTDY
in
5-day plot - Air Temperature
ATMP
°F
5-day plot - Water Temperature
WTMP
°F
5-day plot - Dew Point
DEWP
°F
5-day plot - Salinity
SAL
psu
5-day plot - Visibility
VIS
nmi
5-day plot - Tide (above MLLW)
TIDE
ft
2024-02-21 04:54 pm NW 9.9 13.0----30.21- 61.3 64.6----
2024-02-21 04:48 pm NW 12.0 13.0----30.21- 61.2 64.6----
2024-02-21 04:42 pm NW 11.1 13.0----30.21- 61.3 64.6----
2024-02-21 04:36 pm NW 11.1 12.0----30.21- 61.2 64.6----
2024-02-21 04:30 pm NW 11.1 12.0----30.21- 61.3 64.6----
2024-02-21 04:24 pm NW 9.9 13.0----30.21- 61.3 64.6----
2024-02-21 04:18 pm NW 11.1 12.0----30.22- 61.3 64.6----
2024-02-21 04:12 pm NW 12.0 13.0----30.22- 61.2 64.6----
2024-02-21 04:06 pm NW 11.1 13.0----30.22- 61.3 64.6----
2024-02-21 04:00 pm NW 12.0 13.0----30.22-0.05 61.2 64.6----
2024-02-21 03:54 pm NW 11.1 13.0----30.22- 61.2 64.6----
2024-02-21 03:48 pm NW 12.0 13.0----30.22- 61.2 64.6----
2024-02-21 03:42 pm NW 11.1 12.0----30.22- 61.2 64.6----
2024-02-21 03:36 pm NW 11.1 12.0----30.22- 61.2 64.6----
2024-02-21 03:30 pm NW 12.0 13.0----30.22- 61.0 64.6----
2024-02-21 03:24 pm NW 11.1 12.0----30.22- 61.0 64.6----
2024-02-21 03:18 pm NW 9.9 12.0----30.22- 60.8 64.6----
2024-02-21 03:12 pm NW 11.1 12.0----30.22- 60.8 64.6----
2024-02-21 03:06 pm NW 11.1 12.0----30.22- 60.6 64.4----
2024-02-21 03:00 pm NW 11.1 12.0----30.22-0.08 60.6 64.4----
2024-02-21 02:54 pm NW 11.1 12.0----30.22- 60.3 64.4----
2024-02-21 02:48 pm NW 11.1 12.0----30.22- 60.3 64.4----
2024-02-21 02:42 pm NW 11.1 12.0----30.23- 60.3 64.4----
2024-02-21 02:36 pm NW 11.1 12.0----30.23- 60.1 64.4----
2024-02-21 02:30 pm NW 9.9 12.0----30.23- 60.1 64.2----
2024-02-21 02:24 pmNNW 11.1 12.0----30.23- 59.9 64.2----
2024-02-21 02:18 pmNNW 9.9 11.1----30.23- 59.9 64.2----
2024-02-21 02:12 pmNNW 9.9 11.1----30.23- 59.9 64.0----
2024-02-21 02:06 pmNNW 11.1 12.0----30.23- 59.7 64.0----
2024-02-21 02:00 pmNNW 9.9 12.0----30.23-0.08 59.7 64.0----
2024-02-21 01:54 pmNNW 11.1 11.1----30.23- 59.7 64.0----
2024-02-21 01:48 pm NW 9.9 12.0----30.24- 59.7 64.0----
2024-02-21 01:42 pm NW 11.1 12.0----30.24- 59.5 63.9----
2024-02-21 01:36 pm NW 11.1 12.0----30.25- 59.4 63.9----
2024-02-21 01:30 pm NW 12.0 12.0----30.25- 59.4 63.9----
2024-02-21 01:24 pm NW 11.1 11.1----30.25- 59.5 63.9----
2024-02-21 01:18 pm NW 8.9 9.9----30.26- 59.5 63.9----
2024-02-21 01:12 pm NW 9.9 11.1----30.26- 59.4 63.7----
2024-02-21 01:06 pm NW 9.9 9.9----30.27- 59.4 63.7----
2024-02-21 01:00 pm NW 9.9 11.1----30.27-0.04 59.5 63.7----
2024-02-21 12:54 pm NW 9.9 11.1----30.27- 59.4 63.7----
2024-02-21 12:48 pmNNW 9.9 12.0----30.27- 59.4 63.7----
2024-02-21 12:42 pmNNW 9.9 11.1----30.27- 59.4 63.7----
2024-02-21 12:36 pm NW 8.9 9.9----30.28- 59.2 63.7----
2024-02-21 12:30 pm NW 8.9 9.9----30.28- 59.0 63.7----
2024-02-21 12:24 pm NW 8.0 8.9----30.29- 59.2 63.7----
2024-02-21 12:18 pm NW 8.0 9.9----30.29- 59.0 63.7----
2024-02-21 12:12 pm NW 8.9 9.9----30.29- 58.8 63.5----
2024-02-21 12:06 pm NW 8.9 9.9----30.30- 59.2 63.5----
2024-02-21 12:00 pm NW 8.9 9.9----30.30+0.00 59.2 63.5----
2024-02-21 11:54 am NW 8.0 8.9----30.30- 59.2 63.5----
2024-02-21 11:48 amNNW 8.0 8.9----30.31- 59.2 63.5----
2024-02-21 11:42 am NW 8.0 8.9----30.31- 59.2 63.5----
2024-02-21 11:36 am NW 8.0 8.9----30.31- 59.2 63.3----
2024-02-21 11:30 am NW 8.0 8.9----30.31- 59.5 63.5----
2024-02-21 11:24 am NW 7.0 8.0----30.32- 59.9 63.5----
2024-02-21 11:18 am NW 8.0 8.9----30.32- 59.7 63.3----
2024-02-21 11:12 amNNW 7.0 8.0----30.32- 60.1 63.3----
2024-02-21 11:06 amNNW 7.0 8.0----30.32- 60.1 63.3----
2024-02-21 11:00 amNNW 7.0 8.0----30.32+0.03 59.9 63.3----
2024-02-21 10:54 amNNW 7.0 8.0----30.32- 59.9 63.3----
2024-02-21 10:48 am N 5.1 8.0----30.32- 60.4 63.3----
2024-02-21 10:42 am N 6.0 7.0----30.32- 60.3 63.3----
2024-02-21 10:36 amNNE 6.0 8.0----30.32- 60.3 63.3----
2024-02-21 10:30 am N 5.1 7.0----30.32- 60.3 63.3----
2024-02-21 10:24 am N 6.0 8.0----30.32- 59.9 63.3----
2024-02-21 10:18 amNNE 5.1 7.0----30.32- 59.7 63.3----
2024-02-21 10:12 amNNE 6.0 8.0----30.32- 59.5 63.3----
2024-02-21 10:06 am N 6.0 8.0----30.32- 59.4 63.3----
2024-02-21 10:00 amNNE 5.1 7.0----30.32+0.04- 63.3----
2024-02-21 09:54 amNNE 5.1 7.0----30.31-- 63.3----
2024-02-21 09:48 amNNE 6.0 8.0----30.31- 58.3 63.3----
2024-02-21 09:42 amNNE 6.0 7.0----30.31- 58.3 63.3----
2024-02-21 09:36 amNNE 4.1 5.1----30.31- 58.3 63.3----
2024-02-21 09:30 amNNE 4.1 6.0----30.31- 58.1 63.3----
2024-02-21 09:24 am NE 4.1 5.1----30.31- 57.9 63.1----
2024-02-21 09:18 amNNE 4.1 5.1----30.31- 57.6 63.1----
2024-02-21 09:12 amNNE 4.1 5.1----30.31- 57.4 63.1----
2024-02-21 09:06 am NE 4.1 5.1----30.30- 57.2 63.1----
2024-02-21 09:00 amNNE 4.1 6.0----30.30+0.04 56.7 63.1----
2024-02-21 08:54 amNNE 5.1 5.1----30.30- 56.5 63.1----
2024-02-21 08:48 amNNE 5.1 6.0----30.30- 55.9 63.1----
2024-02-21 08:42 amNNE 4.1 5.1----30.30- 55.8 63.1----
2024-02-21 08:36 amNNE 4.1 5.1----30.30- 55.6 63.1----
2024-02-21 08:30 amNNE 4.1 5.1----30.30- 55.2 63.0----
2024-02-21 08:24 am NE 4.1 6.0----30.29- 55.0 63.0----
2024-02-21 08:18 am NE 5.1 6.0----30.29- 54.9 63.0----
2024-02-21 08:12 am NE 6.0 7.0----30.29- 54.7 63.0----
2024-02-21 08:06 am NE 5.1 6.0----30.29- 54.7 63.0----
2024-02-21 08:00 am NE 4.1 6.0----30.29+0.03 54.7 62.8----
2024-02-21 07:54 am NE 4.1 6.0----30.29- 53.8 62.8----
2024-02-21 07:48 am NE 5.1 7.0----30.29- 53.4 62.8----
2024-02-21 07:42 am NE 4.1 6.0----30.29- 52.9 62.6----
2024-02-21 07:36 amENE 5.1 7.0----30.29- 52.2 62.6----
2024-02-21 07:30 amENE 6.0 7.0----30.29- 52.0 62.6----
2024-02-21 07:24 amENE 5.1 7.0----30.29- 52.0 62.4----
2024-02-21 07:18 amENE 6.0 7.0----30.28- 51.8 62.2----
2024-02-21 07:12 amENE 5.1 6.0----30.28- 51.6 62.2----
2024-02-21 07:06 amENE 5.1 6.0----30.28- 51.6 62.1----
2024-02-21 07:00 amENE 5.1 6.0----30.28+0.04 52.0 62.1----
2024-02-21 06:54 amENE 4.1 5.1----30.28- 52.5 62.1----
2024-02-21 06:48 amENE 1.9 4.1----30.28- 52.5 62.1----
2024-02-21 06:42 amENE 4.1 5.1----30.28- 52.7 62.1----
2024-02-21 06:36 amENE 4.1 5.1----30.27- 52.9 62.2----
2024-02-21 06:30 am NE 1.9 2.9----30.27- 53.2 62.2----
2024-02-21 06:24 amNNE 2.9 2.9----30.27- 54.1 62.2----
2024-02-21 06:18 amNNE 1.9 4.1----30.27- 54.1 62.2----
2024-02-21 06:12 amNNE 2.9 4.1----30.27- 54.3 62.2----
2024-02-21 06:06 amNNE 2.9 5.1----30.27- 54.3 62.2----
2024-02-21 06:00 amNNE 2.9 4.1----30.27+0.03 54.1 62.2----
2024-02-21 05:54 amNNE 4.1 4.1----30.27- 54.3 62.4----
2024-02-21 05:48 amNNE 2.9 5.1----30.27- 54.1 62.4----
2024-02-21 05:42 am NE 2.9 5.1----30.27- 54.1 62.4----
2024-02-21 05:36 amNNE 2.9 5.1----30.27- 54.1 62.4----
2024-02-21 05:30 amNNE 2.9 4.1----30.26- 54.1 62.4----
2024-02-21 05:24 amNNE 2.9 5.1----30.27- 54.1 62.6----
2024-02-21 05:18 am NE 4.1 5.1----30.26- 54.1 62.6----
2024-02-21 05:12 am NE 2.9 5.1----30.26- 54.1 62.6----
2024-02-21 05:06 amNNE 2.9 4.1----30.26- 54.0 62.6----
2024-02-21 05:00 am NE 4.1 5.1----30.26+0.00 53.8 62.8----
2024-02-21 04:54 amNNE 2.9 4.1----30.26- 53.6 62.8----
2024-02-21 04:48 am N 2.9 4.1----30.25- 53.4 62.8----
2024-02-21 04:42 am N 2.9 4.1----30.25- 53.4 62.8----
2024-02-21 04:36 am N 4.1 5.1----30.25- 53.6 62.8----
2024-02-21 04:30 am N 4.1 5.1----30.25- 53.4 62.8----
2024-02-21 04:24 am N 4.1 4.1----30.25- 53.8 62.8----
2024-02-21 04:18 am N 2.9 4.1----30.24- 53.4 62.8----
2024-02-21 04:12 am N 2.9 4.1----30.24- 53.2 62.8----
2024-02-21 04:06 amNNE 2.9 5.1----30.24- 53.2 62.6----
2024-02-21 04:00 amNNE 1.9 5.1----30.24-0.02 53.1 62.8----
2024-02-21 03:54 amNNE 2.9 4.1----30.24- 53.2 62.8----
2024-02-21 03:48 amNNE 2.9 5.1----30.24- 53.4 62.8----
2024-02-21 03:42 am N 2.9 5.1----30.24- 53.6 62.6----
2024-02-21 03:36 am NE 2.9 4.1----30.25- 53.6 62.6----
2024-02-21 03:30 am NE 5.1 7.0----30.24- 53.6 62.6----
2024-02-21 03:24 amENE 2.9 8.0----30.24- 53.6 62.6----
2024-02-21 03:18 amENE 5.1 7.0----30.24- 53.8 62.6----
2024-02-21 03:12 amENE 5.1 8.0----30.24- 53.8 62.6----
2024-02-21 03:06 am NE 5.1 7.0----30.24- 53.6 62.6----
2024-02-21 03:00 amENE 5.1 7.0----30.24-0.04 53.6 62.6----
2024-02-21 02:54 amENE 6.0 8.0----30.24- 53.4 62.6----
2024-02-21 02:48 amENE 5.1 6.0----30.24- 53.4 62.6----
2024-02-21 02:42 amENE 5.1 8.0----30.25- 53.2 62.6----
2024-02-21 02:36 amENE 5.1 7.0----30.25- 53.1 62.6----
2024-02-21 02:30 amENE 6.0 8.0----30.26- 53.1 62.6----
2024-02-21 02:24 am NE 5.1 7.0----30.25- 53.2 62.6----
2024-02-21 02:18 amENE 6.0 8.0----30.26- 53.2 62.6----
2024-02-21 02:12 amENE 5.1 8.9----30.26- 53.4 62.6----
2024-02-21 02:06 amENE 5.1 8.0----30.26- 53.4 62.6----
2024-02-21 02:00 am NE 7.0 9.9----30.26-0.02- 62.8----
2024-02-21 01:54 am NE 8.0 9.9----30.26-- 62.8----
2024-02-21 01:48 am NE 7.0 8.9----30.26- 54.0 62.8----
2024-02-21 01:42 amENE 8.9 11.1----30.26- 54.0 62.8----
2024-02-21 01:36 am NE 8.0 11.1----30.27- 54.5 63.0----
2024-02-21 01:30 am NE 8.9 13.0----30.27- 55.2 63.1----
2024-02-21 01:24 am N 13.0 15.0----30.26- 59.0 63.1----
2024-02-21 01:18 am N 12.0 14.0----30.26- 59.0 63.0----
2024-02-21 01:12 am N 12.0 14.0----30.26- 58.6 63.1----
2024-02-21 01:06 am N 11.1 14.0----30.26- 58.8 63.1----
2024-02-21 01:00 am N 11.1 13.0----30.26-0.01 58.6 63.3----
2024-02-21 12:54 am N 13.0 15.0----30.27- 59.0 63.3----
2024-02-21 12:48 am N 14.0 15.9----30.27- 59.4 63.5----
2024-02-21 12:42 am N 15.0 17.1----30.27- 59.4 63.5----
2024-02-21 12:36 am N 15.0 18.1----30.27- 59.5 63.5----
2024-02-21 12:30 am N 14.0 17.1----30.27- 59.5 63.5----
2024-02-21 12:24 am N 15.0 17.1----30.27- 59.5 63.5----
2024-02-21 12:18 amNNW 15.0 17.1----30.27- 59.5 63.5----
2024-02-21 12:12 amNNW 15.0 15.9----30.27- 59.5 63.5----
2024-02-21 12:06 amNNW 15.0 15.9----30.27- 59.5 63.7----
2024-02-21 12:00 amNNW 15.0 17.1----30.27+0.01 59.5 63.7----
2024-02-20 11:54 pmNNW 14.0 18.1----30.27- 59.5 63.7----
2024-02-20 11:48 pmNNW 15.9 18.1----30.27- 59.4 63.7----
2024-02-20 11:42 pmNNW 15.0 17.1----30.28- 59.5 63.7----
2024-02-20 11:36 pmNNW 15.0 18.1----30.28- 59.5 63.7----
2024-02-20 11:30 pm NW 15.9 18.1----30.28- 59.4 63.7----
2024-02-20 11:24 pmNNW 15.0 15.9----30.28- 59.4 63.7----
2024-02-20 11:18 pm NW 14.0 17.1----30.28- 59.4 63.7----
2024-02-20 11:12 pm NW 15.0 15.9----30.28- 59.4 63.7----
2024-02-20 11:06 pmNNW 14.0 17.1----30.28- 59.4 63.7----
2024-02-20 11:00 pm NW 14.0 15.9----30.28+0.01 59.4 63.7----
2024-02-20 10:54 pm NW 14.0 15.9----30.28- 59.4 63.7----
2024-02-20 10:48 pm NW 15.0 15.9----30.28- 59.4 63.7----
2024-02-20 10:42 pm NW 13.0 15.0----30.28- 59.4 63.7----
2024-02-20 10:36 pm NW 12.0 15.9----30.28- 59.4 63.7----
2024-02-20 10:30 pm NW 13.0 15.0----30.28- 59.4 63.7----
2024-02-20 10:24 pm NW 14.0 15.0----30.28- 59.4 63.7----
2024-02-20 10:18 pm NW 12.0 14.0----30.28- 59.4 63.7----
2024-02-20 10:12 pm NW 12.0 15.0----30.28- 59.4 63.7----
2024-02-20 10:06 pm NW 13.0 14.0----30.27- 59.4 63.7----
2024-02-20 10:00 pmWNW 11.1 12.0----30.27+0.02 59.4 63.7----
2024-02-20 09:54 pm NW 11.1 12.0----30.27- 59.2 63.7----
2024-02-20 09:48 pm NW 9.9 12.0----30.27- 59.4 63.7----
2024-02-20 09:42 pm NW 11.1 12.0----30.27- 59.4 63.7----
2024-02-20 09:36 pm NW 8.9 11.1----30.27- 59.4 63.7----
2024-02-20 09:30 pm NW 8.9 11.1----30.27- 59.4 63.7----
2024-02-20 09:24 pmWNW 9.9 11.1----30.27- 59.4 63.7----
2024-02-20 09:18 pm NW 9.9 11.1----30.26- 59.4 63.9----
2024-02-20 09:12 pm NW 8.9 9.9----30.26- 59.4 63.9----
2024-02-20 09:06 pm NW 8.0 9.9----30.26- 59.4 63.9----
2024-02-20 09:00 pm NW 8.9 9.9----30.26+0.00 59.4 63.9----
2024-02-20 08:54 pm NW 8.9 11.1----30.26- 59.4 63.9----
2024-02-20 08:48 pm NW 8.9 11.1----30.26- 59.5 63.9----
2024-02-20 08:42 pm NW 9.9 12.0----30.26- 59.5 63.9----
2024-02-20 08:36 pm NW 9.9 11.1----30.27- 59.5 63.9----
2024-02-20 08:30 pm NW 9.9 12.0----30.27- 59.5 63.9----
2024-02-20 08:24 pm NW 9.9 12.0----30.27- 59.5 63.9----
2024-02-20 08:18 pm NW 9.9 12.0----30.27- 59.5 63.9----
2024-02-20 08:12 pm NW 9.9 12.0----30.27- 59.5 63.9----
2024-02-20 08:06 pmWNW 9.9 11.1----30.27- 59.5 63.9----
2024-02-20 08:00 pm NW 9.9 11.1----30.27+0.02 59.5 63.9----
2024-02-20 07:54 pm NW 8.9 11.1----30.26- 59.5 63.9----
2024-02-20 07:48 pm NW 9.9 11.1----30.26- 59.5 63.9----
2024-02-20 07:42 pm NW 9.9 12.0----30.26- 59.5 63.9----
2024-02-20 07:36 pm NW 11.1 12.0----30.26- 59.4 63.9----
2024-02-20 07:30 pm NW 11.1 12.0----30.26- 59.5 63.9----
2024-02-20 07:24 pm NW 11.1 12.0----30.26- 59.5 63.9----
2024-02-20 07:18 pm NW 11.1 12.0----30.26- 59.5 63.9----
2024-02-20 07:12 pm NW 11.1 12.0----30.26- 59.5 63.9----
2024-02-20 07:06 pm NW 11.1 13.0----30.26- 59.7 63.9----
2024-02-20 07:00 pm NW 11.1 13.0----30.26+0.03 59.5 63.9----
2024-02-20 06:54 pm NW 11.1 13.0----30.26- 59.5 63.9----
2024-02-20 06:48 pm NW 12.0 13.0----30.26- 59.5 63.9----
2024-02-20 06:42 pm NW 12.0 13.0----30.26- 59.5 63.9----
2024-02-20 06:36 pm NW 11.1 12.0----30.26- 59.5 63.9----
2024-02-20 06:30 pm NW 9.9 12.0----30.26- 59.5 64.0----
2024-02-20 06:24 pm NW 11.1 13.0----30.26- 59.5 64.0----
2024-02-20 06:00 pm NW 12.0 13.0----30.26+0.01 60.1 64.0----
2024-02-20 05:54 pm NW 12.0 13.0----30.26- 60.1 64.0----
2024-02-20 05:48 pmWNW 12.0 14.0----30.26- 60.1 64.0----
2024-02-20 05:42 pm NW 11.1 14.0----30.26- 60.3 64.0----
2024-02-20 05:36 pmWNW 12.0 13.0----30.25- 60.1 64.0----
2024-02-20 05:30 pmWNW 11.1 13.0----30.25- 60.1 64.0----
2024-02-20 05:24 pm NW 11.1 13.0----30.25- 60.3 64.0----
2024-02-20 05:18 pmWNW 11.1 13.0----30.25- 60.3 64.0----
2024-02-20 05:12 pmWNW 11.1 12.0----30.25- 60.1 64.0----
2024-02-20 05:06 pmWNW 11.1 12.0----30.24- 60.3 64.0----
2024-02-20 05:00 pmWNW 11.1 12.0----30.24-0.03 59.9 64.0----
2024-02-20 04:54 pmWNW 8.9 11.1----30.24- 60.3 64.0----